Regional Weather Roundup
Issued by NWS Midland/Odessa, TX

Skip options and go directly to product.
Home | Oldest Version | Previous Version | Current Version | All | Text Only | Save Text | Print | Product List | Glossary Off

Skip product version selection by date and time.   

312
ASUS44 KMAF 171701
RWRMAF
MIDLAND AREA WEATHER ROUNDUP
NATIONAL WEATHER SERVICE MIDLAND TX
1100 AM CST TUE JAN 17 2017

...IN SOUTHWEST TEXAS AND SOUTHEAST NEW MEXICO...

CITY           SKY/WX    TMP DP  RH WIND       PRES   REMARKS
ALPINE         CLOUDY    37  36  99 E7        30.22R VSB<1/4 WCI  31
ANDREWS        FAIR      42  35  75 NE13      30.21R WCI  35
ARTESIA        CLOUDY    43  36  75 N7        30.22S WCI  39
BIG SPRING     CLOUDY    41  35  80 NE17      30.23S WCI  32
CARLSBAD       CLOUDY    42  35  76 N6        30.21R WCI  38
DRYDEN           N/A     48  40  73 N14G22    30.12R
FORT STOCKTON  CLOUDY    40  37  89 N8        30.19R WCI  34
GUAD PASS      NOT AVBL
HOBBS          PTSUNNY   41  37  87 N12       30.21S WCI  34
MARFA          CLOUDY    41  37  86 N10       30.14F WCI  35
MIDLAND AIRPK  CLOUDY    42  36  78 NE13      30.19F WCI  36
MIDLAND INTL   CLOUDY    42  35  76 NE13      30.18S WCI  35
ODESSA         CLOUDY    42  35  76 NE15      30.19S WCI  34
PECOS          CLOUDY    42  35  75 N9        30.23R WCI  37
PRESIDIO       FAIR      60  42  51 NE10G17   30.06F
SEMINOLE       MOSUNNY   42  35  75 NE10      30.22S WCI  36
SNYDER         CLOUDY    43  34  70 NE13      30.22R WCI  37
WINK           CLOUDY    43  35  73 NE7       30.20R WCI  39
$$
...OTHER STATIONS IN TEXAS...

CITY           SKY/WX    TMP DP  RH WIND       PRES   REMARKS
ABILENE        PTSUNNY   44  36  73 N13       30.22R WCI  38
AMARILLO       MOSUNNY   41  33  73 CALM      30.21R
AUSTIN         CLOUDY    53  48  83 N13       30.16F
BROWNSVILLE    CLOUDY    78  71  79 S15       30.02S
CORPUS CHRISTI CLOUDY    76  71  85 SE16      30.04F
DALLAS FTW     PTSUNNY   48  37  65 N10       30.22F
DEL RIO        RAIN      59  52  77 NW8       30.06R
EL PASO        CLOUDY    46  35  65 N7        30.12R
HOUSTON INT    CLOUDY    60  58  92 NE9       30.12R
LUBBOCK        MOSUNNY   43  34  70 NE10      30.22R WCI  37
SAN ANGELO     CLOUDY    45  37  73 NE14      30.17F WCI  38
SAN ANTONIO    LGT RAIN  55  48  77 N12G18    30.12S
WACO           CLOUDY    51  41  68 N12       30.20S
WICHITA FALLS  NOT AVBL
$$
...OTHER LOCATIONS IN NEW MEXICO...

CITY           SKY/WX    TMP DP  RH WIND       PRES   REMARKS
ALAMAGORDO     MOSUNNY   46  37  71 S3        30.15S
ALBUQUERQUE    MOSUNNY   42  37  82 NW6       30.17R WCI  38
CANNON AFB     SUNNY     39  39 100 NE7       30.19S WCI  34
CLOVIS         SUNNY     39  32  75 NE9       30.20S WCI  33
HOLLOMAN AFB   CLOUDY    44  38  82 CALM      30.18R
ROSWELL        CLOUDY    44  32  62 N3        30.22S
RUIDOSO        CLOUDY    32  32 100 SE6       30.20S FOG     WCI  26
SANTA FE       SUNNY     37  31  78 SE3       30.16S
TRUTH OR CONSE PTSUNNY   44  36  73 N12       30.15R WCI  38
TUCUMCARI      SUNNY     42  32  67 S7        30.20R WCI  38
$$

  • National Weather Service
  • Southern Region Headquarters
  • 819 Taylor Street, Room 10A06
  • Fort Worth, TX 76102
  • Page Author: NWS Fort Worth
  • Web Master: SR-SRH.Webmaster@noaa.gov
  •  
  • Page last modified: 30-Sep-2016 6:36 PM UTC
USA.gov is the U.S. government's official web portal to all federal, state and local government web resources and services.